sat.trackr.live / text

‹ back to catalog

STARLINK-4557

NORAD 53432 · 2022-097AW

PAYLOAD ACTIVE UNKNOWN

§ Identity

Operator
Country
US
Launch date
2022-08-10
Launch site
AFETR
Launch vehicle
Mass (kg)
RCS (m²)

Purposes: comms

External: N2YO · Heavens-Above · Gunter

§ Orbital elements

Epoch: 2026-05-25T02:34:39.423072Z

Period
95.44 min
Inclination
53.2135°
Eccentricity
0.0001294
Mean motion
15.08842380 rev/d
Perigee alt
538.8 km
Apogee alt
540.6 km
Semi-major
6,917.9 km
B*
-3.2869e-6
RAAN
120.8278°
Arg perigee
52.0087°
Mean anomaly
308.1022°
Rev number
21,032

§ Raw data

STARLINK-45571 53432U 22097AW  26145.10740073 -.00000340  00000+0 -32869-5 0  99982 53432  53.2135 120.8278 0001294  52.0087 308.1022 15.08842380210327

JSON: /api/v1/satellites/53432 · /tle

For live sub-satellite position, see the globe view (requires WebGL).

§ Visibility from observer

Set your observer location to see the next 7 days of passes ≥ 10°. The values pass through the URL so the page stays shareable.

No JS? Fill the form by hand. The geolocation button needs JavaScript.